Tracking 19176 objects as of 26-May-2018
HD Live streaming from Space Station
objects crossing your sky now

LEMUR 2 JENNYBARNA

Track LEMUR 2 JENNYBARNA now!
10-day predictions
LEMUR 2 JENNYBARNA is classified as:


NORAD ID: 42753
Int'l Code: 2017-019C
Perigee: 477.0 km
Apogee: 491.2 km
Inclination: 51.6 °
Period: 94.1 minutes
Semi major axis: 6855 km
RCS: Unknown
Launch date: April 18, 2017
Source: United States (US)
Launch site: AIR FORCE EASTERN TEST RANGE (AFETR)
aabbcc
Your satellite tracking list
Your tracking list is empty




NASA's NSSDC Master Catalog

Two Line Element Set (TLE):
1 42753U 17019C   18146.16723146  .00000889  00000-0  42977-4 0  9997
2 42753  51.6403 195.2304 0010386 127.5539 232.6387 15.29609545 53708
Source of the keplerian elements: AFSPC